Location: Unspecified
(44.4377°N, 88.0525°W)
Time: 12:28:14
(UTC-05:00)

Cosmos 2058 - Visible Passes

Search period start: 19 April 2014 00:00
Search period end: 29 April 2014 00:00
Orbit: 572 x 595 km, 82.5° (Epoch: 18 April)

Date Brightness Start Highest point End Pass type
(mag) Time Alt. Az. Time Alt. Az. Time Alt. Az.
19 Apr 4.7 05:19:00 10° SSE 05:22:56 37° E 05:26:53 10° NNE visible
20 Apr 3.9 05:24:55 10° S 05:29:04 53° E 05:33:14 10° NNE visible
23 Apr 5.9 04:08:42 10° ESE 04:10:56 14° E 04:13:10 10° NE visible
24 Apr 5.6 04:13:53 10° SE 04:16:56 20° E 04:20:00 10° NE visible
25 Apr 5.1 04:19:24 10° SSE 04:22:58 27° E 04:26:34 10° NNE visible
26 Apr 4.4 04:25:06 10° SSE 04:29:01 37° E 04:32:58 10° NNE visible
27 Apr 3.7 04:30:58 10° S 04:35:06 54° E 04:39:15 10° NNE visible
28 Apr 3.1 04:36:57 10° S 04:41:11 77° E 04:45:27 10° NNE visible
